DW4348 Weather Reports


Display with metric or nautical units.
time (UTC)temp
F
wind
direction
speed
MPH
gust
MPH
rain 1hr
in
rain 24hr
in
rain mn
in
humidity
%
barometer
mb
20260507064129 62 97 3.0 4.0 0.00 0.00 0.00 32 1013.2
20260507063105 63 82 2.0 4.0 0.00 0.00 0.00 31 1013.2
20260507062110 63 97 0.0 4.0 0.00 0.00 0.00 31 1013.0
20260507061059 63 80 2.0 4.0 0.00 0.00 0.00 30 1012.8
20260507060112 64 115 1.0 2.0 0.00 0.00 0.00 30 1012.7
20260507055131 65 114 1.0 2.0 0.00 0.00 0.00 29 1012.7
20260507054107 65 119 1.0 2.0 0.00 0.00 0.00 29 1012.6
20260507050903 67 136 1.0 7.0 0.00 0.00 0.00 27 1012.1
20260507045912 66 169 3.0 7.0 0.00 0.00 0.00 28 1012.1
20260507042646 67 122 2.0 5.0 0.00 0.00 0.00 26 1011.5
20260507041633 68 153 2.0 6.0 0.00 0.00 0.00 26 1011.3
20260507035457 70 144 3.0 7.0 0.00 0.00 0.00 24 1010.7
20260507034452 70 170 4.0 7.0 0.00 0.00 0.00 23 1010.5
20260507033509 71 148 0.0 8.0 0.00 0.00 0.00 23 1010.2
20260507032439 72 77 6.0 13.0 0.00 0.00 0.00 22 1009.9
20260507031452 72 94 8.0 14.0 0.00 0.00 0.00 22 1009.6
20260507030420 73 120 9.0 16.0 0.00 0.00 0.00 22 1009.5
20260507025358 73 108 9.0 19.0 0.00 0.00 0.00 21 1009.2
20260507024327 73 103 11.0 19.0 0.00 0.00 0.00 21 1009.0
20260507023322 73 80 7.0 15.0 0.00 0.00 0.00 21 1008.9
20260507021103 74 111 4.0 12.0 0.00 0.00 0.00 21 1008.6
20260507020106 75 91 6.0 12.0 0.00 0.00 0.00 20 1008.5
20260507015109 75 84 4.0 8.0 0.00 0.00 0.00 20 1008.5
20260507012929 78 87 2.0 10.0 0.00 0.00 0.00 18 1008.5
20260507011859 78 70 2.0 10.0 0.00 0.00 0.00 18 1008.5
20260507010846 76 67 0.0 10.0 0.00 0.00 0.00 19 1008.5
20260507005845 76 84 3.0 10.0 0.00 0.00 0.00 19 1008.6
20260507004832 77 65 3.0 8.0 0.00 0.00 0.00 18 1008.5
20260507002635 79 30 4.0 13.0 0.00 0.00 0.00 17 1008.3
20260507001619 78 264 3.0 8.0 0.00 0.00 0.00 17 1008.4
20260507000627 78 263 2.0 9.0 0.00 0.00 0.00 17 1008.3
20260506235622 79 91 2.0 9.0 0.00 0.00 0.00 17 1008.4
20260506234607 79 340 4.0 11.0 0.00 0.00 0.00 17 1008.3
20260506232512 79 260 4.0 12.0 0.00 0.00 0.00 17 1008.4
20260506231441 78 300 5.0 11.0 0.00 0.00 0.00 18 1008.4
20260506230410 79 300 2.0 10.0 0.00 0.00 0.00 17 1008.6
20260506225425 80 285 4.0 10.0 0.00 0.00 0.00 17 1008.7
20260506224402 80 23 2.0 7.0 0.00 0.00 0.00 17 1008.7
20260506223404 80 127 2.0 6.0 0.00 0.00 0.00 16 1008.9
20260506222429 79 115 2.0 14.0 0.00 0.00 0.00 17 1009.0
20260506221420 79 82 5.0 14.0 0.00 0.00 0.00 16 1009.2
20260506220438 80 269 3.0 8.0 0.00 0.00 0.00 17 1009.3
20260506214339 78 98 4.0 18.0 0.00 0.00 0.00 17 1009.7
20260506213359 77 44 5.0 18.0 0.00 0.00 0.00 18 1009.9
20260506210123 76 141 4.0 16.0 0.00 0.00 0.00 18 1010.6
20260506205137 76 172 4.0 15.0 0.00 0.00 0.00 19 1010.7
20260506202919 75 153 4.0 13.0 0.00 0.00 0.00 20 1011.0
20260506201852 74 136 2.0 12.0 0.00 0.00 0.00 20 1011.0
20260506200847 74 245 3.0 12.0 0.00 0.00 0.00 20 1011.3
20260506195903 75 150 3.0 12.0 0.00 0.00 0.00 19 1011.4
20260506194906 74 53 1.0 5.0 0.00 0.00 0.00 22 1011.6
20260506193856 73 49 2.0 8.0 0.00 0.00 0.00 23 1011.7
20260506191733 70 162 3.0 10.0 0.00 0.00 0.00 24 1012.0
20260506190731 70 150 4.0 10.0 0.00 0.00 0.00 24 1012.2
20260506185728 70 269 4.0 8.0 0.00 0.00 0.00 25 1012.3
20260506184659 71 262 2.0 8.0 0.00 0.00 0.00 25 1012.4
20260506183627 70 48 2.0 7.0 0.00 0.00 0.00 26 1012.6
20260506180322 67 72 3.0 8.0 0.00 0.00 0.00 29 1013.0
20260506175340 67 180 2.0 7.0 0.00 0.00 0.00 28 1013.1
20260506172045 64 308 2.0 6.0 0.00 0.00 0.00 31 1013.3
20260506171110 64 4 2.0 7.0 0.00 0.00 0.00 31 1013.4
20260506170036 63 60 3.0 7.0 0.00 0.00 0.00 32 1013.4
20260506165052 63 288 2.0 5.0 0.00 0.00 0.00 34 1013.5
20260506164024 63 285 1.0 5.0 0.00 0.00 0.00 33 1013.5
20260506163041 61 104 2.0 6.0 0.00 0.00 0.00 34 1013.6
20260506160918 61 134 1.0 4.0 0.00 0.00 0.00 34 1013.6
20260506155854 60 233 1.0 3.0 0.00 0.00 0.00 35 1013.7
20260506154832 59 145 1.0 6.0 0.00 0.00 0.00 36 1013.8
20260506153840 58 142 2.0 6.0 0.00 0.00 0.00 38 1013.8
20260506152812 58 207 1.0 5.0 0.00 0.00 0.00 38 1013.8
20260506151810 57 277 1.0 5.0 0.00 0.00 0.00 38 1013.8
20260506150752 57 162 1.0 4.0 0.00 0.00 0.00 39 1013.8
20260506143423 54 200 0.0 2.0 0.00 0.00 0.00 43 1013.6
20260506142432 54 153 0.0 2.0 0.00 0.00 0.00 44 1013.7
20260506140351 53 134 0.0 1.0 0.00 0.00 0.00 45 1013.6
20260506135401 52 169 0.0 1.0 0.00 0.00 0.00 47 1013.5
20260506134418 51 150 0.0 1.0 0.00 0.00 0.00 47 1013.4
20260506132314 50 103 0.0 0.0 0.00 0.00 0.00 50 1013.1
20260506130129 48 97 0.0 0.0 0.00 0.00 0.00 54 1012.7
20260506125143 46 97 0.0 0.0 0.00 0.00 0.00 55 1012.6
20260506124147 47 97 1.0 2.0 0.00 0.00 0.00 56 1012.5
20260506121956 47 122 0.0 1.0 0.00 0.00 0.00 56 1012.4
20260506121000 47 96 0.0 0.0 0.00 0.00 0.00 55 1012.1
20260506115946 47 82 2.0 3.0 0.00 0.00 0.00 54 1012.0
20260506114935 47 85 2.0 3.0 0.00 0.00 0.00 55 1012.1
20260506113946 47 95 1.0 1.0 0.00 0.00 0.00 55 1012.1
20260506112937 47 94 1.0 3.0 0.00 0.00 0.00 56 1012.0
20260506111936 47 96 2.0 3.0 0.00 0.00 0.00 56 1012.0
20260506110919 47 78 2.0 3.0 0.00 0.00 0.00 55 1011.9
20260506105905 47 105 0.0 2.0 0.00 0.00 0.00 55 1011.7
20260506104855 48 86 2.0 3.0 0.00 0.00 0.00 54 1011.5
20260506102726 49 89 0.0 3.0 0.00 0.00 0.00 51 1011.4
20260506101739 49 89 2.0 3.0 0.00 0.00 0.00 52 1011.3
20260506100706 49 87 0.0 4.0 0.00 0.00 0.00 51 1011.1
20260506095648 50 98 2.0 4.0 0.00 0.00 0.00 52 1011.1
20260506094646 49 83 1.0 3.0 0.00 0.00 0.00 51 1010.9
20260506093708 50 91 0.0 3.0 0.00 0.00 0.00 50 1011.0
20260506092723 51 91 0.0 0.0 0.00 0.00 0.00 48 1010.9
20260506091711 50 91 0.0 0.0 0.00 0.00 0.00 49 1010.7
20260506090730 50 86 1.0 4.0 0.00 0.00 0.00 49 1010.6
20260506085715 51 99 0.0 0.0 0.00 0.00 0.00 49 1010.7
20260506084654 51 87 2.0 3.0 0.00 0.00 0.00 47 1010.5
20260506083718 52 86 2.0 3.0 0.00 0.00 0.00 45 1010.5
20260506082707 52 83 0.0 3.0 0.00 0.00 0.00 46 1010.4
20260506081636 52 129 0.0 0.0 0.00 0.00 0.00 47 1010.4
20260506080649 53 163 1.0 3.0 0.00 0.00 0.00 48 1010.5
20260506071452 55 76 4.0 7.0 0.00 0.00 0.00 41 1010.1
20260506070512 54 79 1.0 3.0 0.00 0.00 0.00 42 1010.1